Weather History for Vero Beach, FL

Change the Weather History Date:

Wednesday, June 19, 2013

  Actual Average Record
Temperature  
Mean Temperature 83 °F 80 °F  
Max Temperature 92 °F 89 °F 97 °F (2004)
Min Temperature 74 °F 72 °F 65 °F (1956)
Degree Days  
Heating Degree Days 0 0  
Month to date heating degree days 0 0  
Since 1 June heating degree days 0 0  
Since 1 July heating degree days 398 456  
Cooling Degree Days 18 16  
Month to date cooling degree days 317 281  
Year to date cooling degree days 1224 1087  
Since 1 June cooling degree days 317 281  
Growing Degree Days 32 (Base 50)    
Moisture  
Dew Point 71 °F    
Average Humidity 68    
Maximum Humidity 87    
Minimum Humidity 49    
Precipitation  
Precipitation 0.00 in 0.23 in 2.44 in (1996)
Month to date precipitation 2.96 4.17  
Year to date precipitation 18.18 19.54  
Sea Level Pressure  
Sea Level Pressure 30.03 in    
Wind  
Wind Speed 7 mph (South)    
Max Wind Speed 24 mph    
Max Gust Speed 31 mph    
Visibility 10 miles    
Events Thunderstorm    
T = Trace of Precipitation, MM = Missing Value Source: NWS Daily Summary

Daily Weather History Graph

Daily Weather History Graph

Search for Another Location

Airport:

Trip Planner

Search our weather history database for the weather conditions in past years. The results will help you decide how hot, cold, wet, or windy it might be!

Date:

Astronomy

Jun. 19, 2013 Rise Set
Actual Time 6:26 AM EDT 8:19 PM EDT
Civil Twilight 5:59 AM EDT 8:46 PM EDT
Nautical Twilight 5:27 AM EDT 9:18 PM EDT
Astronomical Twilight 4:53 AM EDT 9:52 PM EDT
Moon 4:24 PM EDT (6/19) 2:53 AM EDT (6/19)
Length of Visible Light 14h 46m
Length of Day
13h 53m
Waxing Gibbous, 80% of the Moon is Illuminated
Jun 19
Waxing Gibbous
Jun 23
Full
Jun 30
Last Quarter
Jul 8
New
Jul 15
First Quarter

Hourly Weather History & Observations

Time (EDT) Temp. Heat Index Dew Point Humidity Pressure Visibility Wind Dir Wind Speed Gust Speed Precip Events Conditions
12:53 AM 80.1 °F 84.5 °F 73.9 °F 81% 30.03 in 10.0 mi South 6.9 mph - N/A   Clear
1:53 AM 80.1 °F 85.1 °F 75.0 °F 85% 30.04 in 10.0 mi SW 8.1 mph - N/A   Mostly Cloudy
2:53 AM 78.1 °F - 73.0 °F 84% 30.04 in 10.0 mi WSW 12.7 mph 20.7 mph N/A   Clear
3:53 AM 75.9 °F - 70.0 °F 82% 30.03 in 10.0 mi West 5.8 mph - N/A   Scattered Clouds
4:53 AM 75.0 °F - 69.1 °F 82% 30.01 in 10.0 mi Calm Calm - N/A   Scattered Clouds
5:53 AM 75.0 °F - 69.1 °F 82% 30.03 in 10.0 mi Calm Calm - N/A   Clear
6:53 AM 73.9 °F - 70.0 °F 87% 30.03 in 10.0 mi South 5.8 mph - N/A   Clear
7:53 AM 79.0 °F - 71.1 °F 77% 30.04 in 10.0 mi SW 3.5 mph - N/A   Clear
8:53 AM 84.0 °F 89.6 °F 72.0 °F 67% 30.05 in 10.0 mi SSW 3.5 mph - N/A   Clear
9:53 AM 88.0 °F 92.1 °F 69.1 °F 53% 30.05 in 10.0 mi South 6.9 mph - N/A   Clear
10:53 AM 91.0 °F 95.6 °F 69.1 °F 48% 30.05 in 10.0 mi WSW 6.9 mph - N/A   Clear
11:53 AM 91.0 °F 97.6 °F 71.1 °F 52% 30.05 in 10.0 mi SW 9.2 mph - N/A   Scattered Clouds
12:53 PM 89.1 °F 99.1 °F 75.0 °F 63% 30.04 in 10.0 mi ESE 12.7 mph - N/A   Mostly Cloudy
1:53 PM 88.0 °F 96.5 °F 73.9 °F 63% 30.03 in 10.0 mi ESE 12.7 mph - N/A   Scattered Clouds
2:53 PM 90.0 °F 100.2 °F 75.0 °F 61% 30.01 in 10.0 mi SE 13.8 mph - N/A   Clear
3:53 PM 90.0 °F 99.0 °F 73.9 °F 59% 30.00 in 10.0 mi SE 16.1 mph - N/A   Clear
4:53 PM 88.0 °F 96.5 °F 73.9 °F 63% 29.99 in 10.0 mi SE 13.8 mph - N/A   Clear
5:53 PM 87.1 °F 97.3 °F 75.9 °F 69% 29.99 in 10.0 mi SE 18.4 mph 23.0 mph N/A   Clear
6:53 PM 84.9 °F 92.1 °F 73.9 °F 69% 30.01 in 10.0 mi SE 16.1 mph - N/A   Clear
7:53 PM 84.0 °F 92.6 °F 75.9 °F 76% 30.05 in 10.0 mi South 6.9 mph - N/A   Mostly Cloudy
8:20 PM 78.8 °F - 62.6 °F 57% 30.05 in 10.0 mi NNW 11.5 mph - N/A   Mostly Cloudy
8:53 PM 77.0 °F - 66.0 °F 69% 30.03 in 10.0 mi Calm Calm - N/A   Clear
9:00 PM 78.8 °F - 64.4 °F 61% 30.03 in 10.0 mi South 4.6 mph - N/A Thunderstorm Clear
9:15 PM 78.8 °F - 64.4 °F 61% 30.03 in 10.0 mi SSE 4.6 mph - N/A   Clear
9:53 PM 78.1 °F - 66.9 °F 68% 30.04 in 10.0 mi NE 3.5 mph - N/A   Clear
10:53 PM 78.1 °F - 68.0 °F 71% 30.07 in 10.0 mi Calm Calm - N/A   Clear
11:53 PM 78.1 °F - 68.0 °F 71% 30.06 in 10.0 mi Calm Calm - N/A   Clear